Year,Month,Day,Hour,Minute,Value (Times are PST for temperature in C)
2006,07,22,00,00,23.30
2006,07,22,00,01,23.30
2006,07,22,00,02,23.20
2006,07,22,00,03,23.20
2006,07,22,00,04,23.20
2006,07,22,00,05,23.20
2006,07,22,00,06,23.20
2006,07,22,00,07,23.10
2006,07,22,00,08,23.10
2006,07,22,00,09,23.10
2006,07,22,00,10,23.00
2006,07,22,00,11,22.90
2006,07,22,00,12,22.90
2006,07,22,00,13,22.90
2006,07,22,00,14,22.90
2006,07,22,00,15,22.90
2006,07,22,00,16,22.90
2006,07,22,00,17,22.90
2006,07,22,00,18,22.90
2006,07,22,00,19,22.90
2006,07,22,00,20,22.90
2006,07,22,00,21,22.90
2006,07,22,00,22,22.90
2006,07,22,00,23,22.90
2006,07,22,00,24,22.90
2006,07,22,00,25,22.90
2006,07,22,00,26,22.90
2006,07,22,00,27,22.90
2006,07,22,00,28,22.90
2006,07,22,00,29,22.90
2006,07,22,00,30,22.90
2006,07,22,00,31,22.90
2006,07,22,00,32,22.90
2006,07,22,00,33,22.90
2006,07,22,00,34,23.10
2006,07,22,00,35,23.10
2006,07,22,00,36,23.10
2006,07,22,00,37,23.10
2006,07,22,00,38,23.10
2006,07,22,00,39,23.10
2006,07,22,00,40,23.10
2006,07,22,00,41,23.10
2006,07,22,00,42,23.00
2006,07,22,00,43,22.90
2006,07,22,00,44,22.90
2006,07,22,00,45,22.90
2006,07,22,00,46,22.90
2006,07,22,00,47,22.90
2006,07,22,00,48,22.90
2006,07,22,00,49,23.00
2006,07,22,00,50,23.10
2006,07,22,00,51,23.10
2006,07,22,00,52,23.20
2006,07,22,00,53,23.30
2006,07,22,00,54,23.30
2006,07,22,00,55,23.40
2006,07,22,00,56,23.50
2006,07,22,00,57,23.60
2006,07,22,00,58,23.60
2006,07,22,00,59,23.70
2006,07,22,01,00,23.70
2006,07,22,01,01,23.70
2006,07,22,01,02,23.70
2006,07,22,01,03,23.70
2006,07,22,01,04,23.70
2006,07,22,01,05,23.70
2006,07,22,01,06,23.70
2006,07,22,01,07,23.60
2006,07,22,01,08,23.60
2006,07,22,01,09,23.60
2006,07,22,01,10,23.60
2006,07,22,01,11,23.40
2006,07,22,01,12,23.40
2006,07,22,01,13,23.40
2006,07,22,01,14,23.30
2006,07,22,01,15,23.30
2006,07,22,01,16,23.30
2006,07,22,01,17,23.30
2006,07,22,01,18,23.30
2006,07,22,01,19,23.20
2006,07,22,01,20,23.10
2006,07,22,01,21,23.10
2006,07,22,01,22,23.00
2006,07,22,01,23,22.90
2006,07,22,01,24,22.90
2006,07,22,01,25,22.90
2006,07,22,01,26,22.90
2006,07,22,01,27,22.80
2006,07,22,01,28,22.80
2006,07,22,01,29,22.70
2006,07,22,01,30,22.70
2006,07,22,01,31,22.70
2006,07,22,01,32,22.60
2006,07,22,01,33,22.60
2006,07,22,01,34,22.60
2006,07,22,01,35,22.50
2006,07,22,01,36,22.50
2006,07,22,01,37,22.50
2006,07,22,01,38,22.40
2006,07,22,01,39,22.40
2006,07,22,01,40,22.40
2006,07,22,01,41,22.30
2006,07,22,01,42,22.30
2006,07,22,01,43,22.20
2006,07,22,01,44,22.20
2006,07,22,01,45,22.20
2006,07,22,01,46,22.10
2006,07,22,01,47,22.10
2006,07,22,01,48,22.10
2006,07,22,01,49,22.00
2006,07,22,01,50,22.00
2006,07,22,01,51,22.00
2006,07,22,01,52,21.90
2006,07,22,01,53,21.90
2006,07,22,01,54,21.90
2006,07,22,01,55,21.90
2006,07,22,01,56,21.90
2006,07,22,01,57,21.90
2006,07,22,01,58,21.80
2006,07,22,01,59,21.80
2006,07,22,02,00,21.80
2006,07,22,02,01,21.90
2006,07,22,02,02,21.90
2006,07,22,02,03,22.00
2006,07,22,02,04,22.00
2006,07,22,02,05,22.10
2006,07,22,02,06,22.10
2006,07,22,02,07,22.20
2006,07,22,02,08,22.20
2006,07,22,02,09,22.20
2006,07,22,02,10,22.20
2006,07,22,02,11,22.20
2006,07,22,02,12,22.20
2006,07,22,02,13,22.20
2006,07,22,02,14,22.20
2006,07,22,02,15,22.20
2006,07,22,02,16,22.20
2006,07,22,02,17,22.20
2006,07,22,02,18,22.20
2006,07,22,02,19,22.20
2006,07,22,02,20,22.20
2006,07,22,02,21,22.30
2006,07,22,02,22,22.30
2006,07,22,02,23,22.30
2006,07,22,02,24,22.30
2006,07,22,02,25,22.30
2006,07,22,02,26,22.30
2006,07,22,02,27,22.30
2006,07,22,02,28,22.30
2006,07,22,02,29,22.30
2006,07,22,02,30,22.40
2006,07,22,02,31,22.40
2006,07,22,02,32,22.30
2006,07,22,02,33,22.40
2006,07,22,02,34,22.40
2006,07,22,02,35,22.40
2006,07,22,02,36,22.40
2006,07,22,02,37,22.50
2006,07,22,02,38,22.50
2006,07,22,02,39,22.60
2006,07,22,02,40,22.60
2006,07,22,02,41,22.60
2006,07,22,02,42,22.70
2006,07,22,02,43,22.70
2006,07,22,02,44,22.80
2006,07,22,02,45,22.80
2006,07,22,02,46,22.80
2006,07,22,02,47,22.90
2006,07,22,02,48,22.90
2006,07,22,02,49,22.90
2006,07,22,02,50,22.90
2006,07,22,02,51,22.90
2006,07,22,02,52,22.90
2006,07,22,02,53,22.90
2006,07,22,02,54,22.80
2006,07,22,02,55,22.80
2006,07,22,02,56,22.80
2006,07,22,02,57,22.80
2006,07,22,02,58,22.80
2006,07,22,02,59,22.80
2006,07,22,03,00,22.80
2006,07,22,03,01,22.70
2006,07,22,03,02,22.70
2006,07,22,03,03,22.70
2006,07,22,03,04,22.60
2006,07,22,03,05,22.60
2006,07,22,03,06,22.60
2006,07,22,03,07,22.60
2006,07,22,03,08,22.50
2006,07,22,03,09,22.50
2006,07,22,03,10,22.50
2006,07,22,03,11,22.40
2006,07,22,03,12,22.40
2006,07,22,03,13,22.40
2006,07,22,03,14,22.30
2006,07,22,03,15,22.30
2006,07,22,03,16,22.30
2006,07,22,03,17,22.30
2006,07,22,03,18,22.30
2006,07,22,03,19,22.30
2006,07,22,03,20,22.30
2006,07,22,03,21,22.30
2006,07,22,03,22,22.20
2006,07,22,03,23,22.20
2006,07,22,03,24,22.20
2006,07,22,03,25,22.10
2006,07,22,03,26,22.10
2006,07,22,03,27,22.10
2006,07,22,03,28,22.00
2006,07,22,03,29,22.00
2006,07,22,03,30,22.00
2006,07,22,03,31,21.90
2006,07,22,03,32,21.90
2006,07,22,03,33,21.90
2006,07,22,03,34,21.80
2006,07,22,03,35,21.80
2006,07,22,03,36,21.80
2006,07,22,03,37,21.80
2006,07,22,03,38,21.70
2006,07,22,03,39,21.70
2006,07,22,03,40,21.70
2006,07,22,03,41,21.70
2006,07,22,03,42,21.70
2006,07,22,03,43,21.60
2006,07,22,03,44,21.60
2006,07,22,03,45,21.60
2006,07,22,03,46,21.60
2006,07,22,03,47,21.60
2006,07,22,03,48,21.60
2006,07,22,03,49,21.60
2006,07,22,03,50,21.50
2006,07,22,03,51,21.40
2006,07,22,03,52,21.40
2006,07,22,03,53,21.40
2006,07,22,03,54,21.30
2006,07,22,03,55,21.30
2006,07,22,03,56,21.30
2006,07,22,03,57,21.30
2006,07,22,03,58,21.30
2006,07,22,03,59,21.30
2006,07,22,04,00,21.30
2006,07,22,04,01,21.30
2006,07,22,04,02,21.30
2006,07,22,04,03,21.30
2006,07,22,04,04,21.30
2006,07,22,04,05,21.30
2006,07,22,04,06,21.30
2006,07,22,04,07,21.20
2006,07,22,04,08,21.20
2006,07,22,04,09,21.20
2006,07,22,04,10,21.20
2006,07,22,04,11,21.20
2006,07,22,04,12,21.20
2006,07,22,04,13,21.20
2006,07,22,04,14,21.10
2006,07,22,04,15,21.10
2006,07,22,04,16,21.10
2006,07,22,04,17,21.10
2006,07,22,04,18,21.10
2006,07,22,04,19,21.10
2006,07,22,04,20,21.10
2006,07,22,04,21,21.10
2006,07,22,04,22,21.10
2006,07,22,04,23,21.10
2006,07,22,04,24,21.00
2006,07,22,04,25,21.00
2006,07,22,04,26,21.00
2006,07,22,04,27,21.00
2006,07,22,04,28,21.00
2006,07,22,04,29,21.00
2006,07,22,04,30,20.90
2006,07,22,04,31,20.90
2006,07,22,04,32,20.90
2006,07,22,04,33,20.90
2006,07,22,04,34,20.90
2006,07,22,04,35,20.90
2006,07,22,04,36,20.90
2006,07,22,04,37,21.00
2006,07,22,04,38,21.00
2006,07,22,04,39,21.00
2006,07,22,04,40,21.10
2006,07,22,04,41,21.10
2006,07,22,04,42,21.20
2006,07,22,04,43,21.20
2006,07,22,04,44,21.30
2006,07,22,04,45,21.30
2006,07,22,04,46,21.30
2006,07,22,04,47,21.30
2006,07,22,04,48,21.30
2006,07,22,04,49,21.30
2006,07,22,04,50,21.30
2006,07,22,04,51,21.40
2006,07,22,04,52,21.40
2006,07,22,04,53,21.40
2006,07,22,04,54,21.40
2006,07,22,04,55,21.40
2006,07,22,04,56,21.40
2006,07,22,04,57,21.40
2006,07,22,04,58,21.40
2006,07,22,04,59,21.40
2006,07,22,05,00,21.40
2006,07,22,05,01,21.40
2006,07,22,05,02,21.40
2006,07,22,05,03,21.40
2006,07,22,05,04,21.40
2006,07,22,05,05,21.40
2006,07,22,05,06,21.50
2006,07,22,05,07,21.60
2006,07,22,05,08,21.60
2006,07,22,05,09,21.60
2006,07,22,05,10,21.60
2006,07,22,05,11,21.60
2006,07,22,05,12,21.60
2006,07,22,05,13,21.60
2006,07,22,05,14,21.50
2006,07,22,05,15,21.40
2006,07,22,05,16,21.40
2006,07,22,05,17,21.40
2006,07,22,05,18,21.40
2006,07,22,05,19,21.40
2006,07,22,05,20,21.40
2006,07,22,05,21,21.30
2006,07,22,05,22,21.30
2006,07,22,05,23,21.30
2006,07,22,05,24,21.30
2006,07,22,05,25,21.30
2006,07,22,05,26,21.30
2006,07,22,05,27,21.20
2006,07,22,05,28,21.20
2006,07,22,05,29,21.20
2006,07,22,05,30,21.10
2006,07,22,05,31,21.10
2006,07,22,05,32,21.10
2006,07,22,05,33,21.00
2006,07,22,05,34,21.00
2006,07,22,05,35,21.00
2006,07,22,05,36,21.00
2006,07,22,05,37,20.80
2006,07,22,05,38,20.80
2006,07,22,05,39,20.70
2006,07,22,05,40,20.70
2006,07,22,05,41,20.70
2006,07,22,05,42,20.60
2006,07,22,05,43,20.60
2006,07,22,05,44,20.60
2006,07,22,05,45,20.50
2006,07,22,05,46,20.50
2006,07,22,05,47,20.50
2006,07,22,05,48,20.50
2006,07,22,05,49,20.40
2006,07,22,05,50,20.40
2006,07,22,05,51,20.40
2006,07,22,05,52,20.40
2006,07,22,05,53,20.30
2006,07,22,05,54,20.30
2006,07,22,05,55,20.30
2006,07,22,05,56,20.20
2006,07,22,05,57,20.20
2006,07,22,05,58,20.20
2006,07,22,05,59,20.20
2006,07,22,06,00,20.10
2006,07,22,06,01,20.10
2006,07,22,06,02,20.10
2006,07,22,06,03,20.10
2006,07,22,06,04,20.10
2006,07,22,06,05,20.00
2006,07,22,06,06,19.90
2006,07,22,06,07,19.90
2006,07,22,06,08,19.90
2006,07,22,06,09,19.90
2006,07,22,06,10,19.90
2006,07,22,06,11,19.90
2006,07,22,06,12,19.90
2006,07,22,06,13,19.90
2006,07,22,06,14,19.90
2006,07,22,06,15,19.90
2006,07,22,06,16,19.90
2006,07,22,06,17,19.90
2006,07,22,06,18,19.90
2006,07,22,06,19,19.90
2006,07,22,06,20,19.90
2006,07,22,06,21,19.90
2006,07,22,06,22,19.90
2006,07,22,06,23,19.90
2006,07,22,06,24,19.90
2006,07,22,06,25,19.90
2006,07,22,06,26,19.90
2006,07,22,06,27,19.90
2006,07,22,06,28,19.90
2006,07,22,06,29,19.90
2006,07,22,06,30,19.90
2006,07,22,06,31,19.90
2006,07,22,06,32,19.90
2006,07,22,06,33,19.90
2006,07,22,06,34,20.00
2006,07,22,06,35,20.10
2006,07,22,06,36,20.10
2006,07,22,06,37,20.10
2006,07,22,06,38,20.10
2006,07,22,06,39,20.10
2006,07,22,06,40,20.10
2006,07,22,06,41,20.20
2006,07,22,06,42,20.20
2006,07,22,06,43,20.20
2006,07,22,06,44,20.20
2006,07,22,06,45,20.20
2006,07,22,06,46,20.20
2006,07,22,06,47,20.20
2006,07,22,06,48,20.30
2006,07,22,06,49,20.30
2006,07,22,06,50,20.40
2006,07,22,06,51,20.40
2006,07,22,06,52,20.50
2006,07,22,06,53,20.50
2006,07,22,06,54,20.50
2006,07,22,06,55,20.50
2006,07,22,06,56,20.60
2006,07,22,06,57,20.60
2006,07,22,06,58,20.60
2006,07,22,06,59,20.70
2006,07,22,07,00,20.70
2006,07,22,07,01,20.70
2006,07,22,07,02,20.80
2006,07,22,07,03,20.80
2006,07,22,07,04,20.80
2006,07,22,07,05,20.90
2006,07,22,07,06,21.00
2006,07,22,07,07,21.00
2006,07,22,07,08,21.10
2006,07,22,07,09,21.10
2006,07,22,07,10,21.20
2006,07,22,07,11,21.30
2006,07,22,07,12,21.30
2006,07,22,07,13,21.40
2006,07,22,07,14,21.40
2006,07,22,07,15,21.60
2006,07,22,07,16,21.60
2006,07,22,07,17,21.60
2006,07,22,07,18,21.70
2006,07,22,07,19,21.70
2006,07,22,07,20,21.80
2006,07,22,07,21,21.80
2006,07,22,07,22,21.90
2006,07,22,07,23,21.90
2006,07,22,07,24,21.90
2006,07,22,07,25,21.90
2006,07,22,07,26,22.00
2006,07,22,07,27,22.00
2006,07,22,07,28,22.10
2006,07,22,07,29,22.10
2006,07,22,07,30,22.20
2006,07,22,07,31,22.20
2006,07,22,07,32,22.30
2006,07,22,07,33,22.30
2006,07,22,07,34,22.40
2006,07,22,07,35,22.40
2006,07,22,07,36,22.50
2006,07,22,07,37,22.60
2006,07,22,07,38,22.70
2006,07,22,07,39,22.70
2006,07,22,07,40,22.90
2006,07,22,07,41,23.00
2006,07,22,07,42,23.10
2006,07,22,07,43,23.20
2006,07,22,07,44,23.40
2006,07,22,07,45,23.50
2006,07,22,07,46,23.70
2006,07,22,07,47,23.80
2006,07,22,07,48,23.90
2006,07,22,07,49,23.90
2006,07,22,07,50,23.90
2006,07,22,07,51,23.90
2006,07,22,07,52,23.90
2006,07,22,07,53,23.90
2006,07,22,07,54,23.90
2006,07,22,07,55,23.90
2006,07,22,07,56,23.90
2006,07,22,07,57,23.90
2006,07,22,07,58,23.90
2006,07,22,07,59,23.80
2006,07,22,08,00,23.80
2006,07,22,08,01,23.70
2006,07,22,08,02,23.70
2006,07,22,08,03,23.70
2006,07,22,08,04,23.70
2006,07,22,08,05,23.70
2006,07,22,08,06,23.70
2006,07,22,08,07,23.70
2006,07,22,08,08,23.80
2006,07,22,08,09,23.80
2006,07,22,08,10,23.80
2006,07,22,08,11,23.80
2006,07,22,08,12,23.80
2006,07,22,08,13,23.80
2006,07,22,08,14,23.80
2006,07,22,08,15,23.90
2006,07,22,08,16,23.90
2006,07,22,08,17,23.90
2006,07,22,08,18,23.90
2006,07,22,08,19,24.00
2006,07,22,08,20,24.10
2006,07,22,08,21,24.10
2006,07,22,08,22,24.10
2006,07,22,08,23,24.20
2006,07,22,08,24,24.30
2006,07,22,08,25,24.40
2006,07,22,08,26,24.40
2006,07,22,08,27,24.40
2006,07,22,08,28,24.40
2006,07,22,08,29,24.50
2006,07,22,08,30,24.50
2006,07,22,08,31,24.50
2006,07,22,08,32,24.50
2006,07,22,08,33,24.60
2006,07,22,08,34,24.60
2006,07,22,08,35,24.70
2006,07,22,08,36,24.70
2006,07,22,08,37,24.80
2006,07,22,08,38,24.80
2006,07,22,08,39,24.90
2006,07,22,08,40,25.00
2006,07,22,08,41,25.10
2006,07,22,08,42,25.20
2006,07,22,08,43,25.30
2006,07,22,08,44,25.40
2006,07,22,08,45,25.50
2006,07,22,08,46,25.50
2006,07,22,08,47,25.60
2006,07,22,08,48,25.70
2006,07,22,08,49,25.80
2006,07,22,08,50,25.80
2006,07,22,08,51,25.90
2006,07,22,08,52,25.90
2006,07,22,08,53,25.90
2006,07,22,08,54,26.00
2006,07,22,08,55,26.00
2006,07,22,08,56,26.10
2006,07,22,08,57,26.20
2006,07,22,08,58,26.20
2006,07,22,08,59,26.20
2006,07,22,09,00,26.30
2006,07,22,09,01,26.30
2006,07,22,09,02,26.30
2006,07,22,09,03,26.30
2006,07,22,09,04,26.40
2006,07,22,09,05,26.50
2006,07,22,09,06,26.60
2006,07,22,09,07,26.60
2006,07,22,09,08,26.70
2006,07,22,09,09,26.80
2006,07,22,09,10,26.80
2006,07,22,09,11,26.80
2006,07,22,09,12,26.80
2006,07,22,09,13,26.70
2006,07,22,09,14,26.10
2006,07,22,09,15,25.60
2006,07,22,09,16,25.00
2006,07,22,09,17,23.90
2006,07,22,09,18,23.20
2006,07,22,09,19,22.90
2006,07,22,09,20,22.60
2006,07,22,09,21,22.50
2006,07,22,09,22,22.30
2006,07,22,09,23,22.20
2006,07,22,09,24,22.10
2006,07,22,09,25,22.10
2006,07,22,09,26,22.10
2006,07,22,09,27,22.10
2006,07,22,09,28,22.30
2006,07,22,09,29,22.40
2006,07,22,09,30,22.50
2006,07,22,09,31,22.50
2006,07,22,09,32,22.50
2006,07,22,09,33,22.60
2006,07,22,09,34,22.70
2006,07,22,09,35,22.90
2006,07,22,09,36,23.10
2006,07,22,09,37,23.20
2006,07,22,09,38,23.30
2006,07,22,09,39,23.30
2006,07,22,09,40,23.20
2006,07,22,09,41,23.20
2006,07,22,09,42,23.20
2006,07,22,09,43,23.20
2006,07,22,09,44,23.20
2006,07,22,09,45,23.30
2006,07,22,09,46,23.20
2006,07,22,09,47,23.20
2006,07,22,09,48,23.10
2006,07,22,09,49,23.10
2006,07,22,09,50,22.90
2006,07,22,09,51,22.90
2006,07,22,09,52,22.90
2006,07,22,09,53,23.00
2006,07,22,09,54,23.10
2006,07,22,09,55,23.10
2006,07,22,09,56,23.20
2006,07,22,09,57,23.30
2006,07,22,09,58,23.50
2006,07,22,09,59,23.70
2006,07,22,10,00,23.90
2006,07,22,10,01,24.00
2006,07,22,10,02,24.10
2006,07,22,10,03,24.30
2006,07,22,10,04,24.50
2006,07,22,10,05,24.60
2006,07,22,10,06,24.80
2006,07,22,10,07,24.90
2006,07,22,10,08,25.10
2006,07,22,10,09,25.30
2006,07,22,10,10,25.60
2006,07,22,10,11,25.80
2006,07,22,10,12,26.00
2006,07,22,10,13,26.30
2006,07,22,10,14,26.50
2006,07,22,10,15,26.80
2006,07,22,10,16,26.90
2006,07,22,10,17,26.90
2006,07,22,10,18,26.80
2006,07,22,10,19,26.70
2006,07,22,10,20,26.60
2006,07,22,10,21,26.50
2006,07,22,10,22,26.40
2006,07,22,10,23,26.40
2006,07,22,10,24,26.50
2006,07,22,10,25,26.60
2006,07,22,10,26,26.60
2006,07,22,10,27,26.60
2006,07,22,10,28,26.70
2006,07,22,10,29,26.80
2006,07,22,10,30,26.80
2006,07,22,10,31,26.80
2006,07,22,10,32,26.60
2006,07,22,10,33,26.40
2006,07,22,10,34,26.30
2006,07,22,10,35,26.20
2006,07,22,10,36,25.90
2006,07,22,10,37,25.30
2006,07,22,10,38,24.90
2006,07,22,10,39,24.50
2006,07,22,10,40,24.10
2006,07,22,10,41,23.80
2006,07,22,10,42,23.60
2006,07,22,10,43,23.30
2006,07,22,10,44,23.20
2006,07,22,10,45,23.20
2006,07,22,10,46,23.30
2006,07,22,10,47,23.50
2006,07,22,10,48,23.70
2006,07,22,10,49,23.70
2006,07,22,10,50,23.60
2006,07,22,10,51,23.60
2006,07,22,10,52,23.60
2006,07,22,10,53,23.50
2006,07,22,10,54,23.40
2006,07,22,10,55,23.50
2006,07,22,10,56,23.70
2006,07,22,10,57,23.70
2006,07,22,10,58,23.80
2006,07,22,10,59,24.00
2006,07,22,11,00,24.10
2006,07,22,11,01,24.20
2006,07,22,11,02,24.40
2006,07,22,11,03,24.50
2006,07,22,11,04,24.60
2006,07,22,11,05,24.70
2006,07,22,11,06,24.80
2006,07,22,11,07,24.90
2006,07,22,11,08,25.10
2006,07,22,11,09,25.20
2006,07,22,11,10,25.10
2006,07,22,11,11,25.00
2006,07,22,11,12,24.90
2006,07,22,11,13,24.80
2006,07,22,11,14,24.70
2006,07,22,11,15,24.70
2006,07,22,11,16,24.70
2006,07,22,11,17,24.70
2006,07,22,11,18,24.70
2006,07,22,11,19,24.80
2006,07,22,11,20,25.00
2006,07,22,11,21,25.20
2006,07,22,11,22,25.30
2006,07,22,11,23,25.40
2006,07,22,11,24,25.50
2006,07,22,11,25,25.50
2006,07,22,11,26,25.60
2006,07,22,11,27,25.60
2006,07,22,11,28,25.80
2006,07,22,11,29,25.80
2006,07,22,11,30,25.80
2006,07,22,11,31,25.70
2006,07,22,11,32,25.70
2006,07,22,11,33,25.70
2006,07,22,11,34,25.80
2006,07,22,11,35,25.80
2006,07,22,11,36,25.90
2006,07,22,11,37,25.90
2006,07,22,11,38,25.90
2006,07,22,11,39,25.80
2006,07,22,11,40,25.80
2006,07,22,11,41,25.80
2006,07,22,11,42,25.90
2006,07,22,11,43,25.90
2006,07,22,11,44,26.10
2006,07,22,11,45,26.20
2006,07,22,11,46,26.20
2006,07,22,11,47,26.30
2006,07,22,11,48,26.40
2006,07,22,11,49,26.50
2006,07,22,11,50,26.40
2006,07,22,11,51,26.30
2006,07,22,11,52,26.30
2006,07,22,11,53,26.40
2006,07,22,11,54,26.40
2006,07,22,11,55,26.50
2006,07,22,11,56,26.60
2006,07,22,11,57,26.70
2006,07,22,11,58,26.70
2006,07,22,11,59,26.70
2006,07,22,12,00,26.80
2006,07,22,12,01,26.90
2006,07,22,12,02,27.10
2006,07,22,12,03,27.30
2006,07,22,12,04,27.40
2006,07,22,12,05,27.60
2006,07,22,12,06,27.60
2006,07,22,12,07,27.70
2006,07,22,12,08,27.90
2006,07,22,12,09,28.10
2006,07,22,12,10,28.20
2006,07,22,12,11,28.30
2006,07,22,12,12,28.40
2006,07,22,12,13,28.40
2006,07,22,12,14,28.30
2006,07,22,12,15,28.30
2006,07,22,12,16,28.20
2006,07,22,12,17,28.20
2006,07,22,12,18,28.20
2006,07,22,12,19,28.20
2006,07,22,12,20,28.20
2006,07,22,12,21,28.20
2006,07,22,12,22,28.30
2006,07,22,12,23,28.50
2006,07,22,12,24,28.50
2006,07,22,12,25,28.40
2006,07,22,12,26,28.50
2006,07,22,12,27,28.60
2006,07,22,12,28,28.70
2006,07,22,12,29,28.70
2006,07,22,12,30,28.70
2006,07,22,12,31,28.80
2006,07,22,12,32,28.90
2006,07,22,12,33,28.90
2006,07,22,12,34,28.90
2006,07,22,12,35,28.90
2006,07,22,12,36,28.90
2006,07,22,12,37,28.90
2006,07,22,12,38,28.90
2006,07,22,12,39,29.00
2006,07,22,12,40,29.20
2006,07,22,12,41,29.40
2006,07,22,12,42,29.60
2006,07,22,12,43,29.80
2006,07,22,12,44,30.00
2006,07,22,12,45,30.20
2006,07,22,12,46,30.40
2006,07,22,12,47,30.60
2006,07,22,12,48,30.80
2006,07,22,12,49,31.10
2006,07,22,12,50,31.20
2006,07,22,12,51,31.20
2006,07,22,12,52,31.10
2006,07,22,12,53,31.00
2006,07,22,12,54,30.90
2006,07,22,12,55,30.80
2006,07,22,12,56,30.80
2006,07,22,12,57,30.80
2006,07,22,12,58,30.90
2006,07,22,12,59,30.90
2006,07,22,13,00,30.90
2006,07,22,13,01,30.90
2006,07,22,13,02,30.90
2006,07,22,13,03,31.00
2006,07,22,13,04,31.10
2006,07,22,13,05,31.20
2006,07,22,13,06,31.40
2006,07,22,13,07,31.50
2006,07,22,13,08,31.80
2006,07,22,13,09,32.00
2006,07,22,13,10,32.20
2006,07,22,13,11,32.50
2006,07,22,13,12,32.80
2006,07,22,13,13,33.00
2006,07,22,13,14,33.10
2006,07,22,13,15,33.30
2006,07,22,13,16,33.40
2006,07,22,13,17,33.40
2006,07,22,13,18,33.40
2006,07,22,13,19,33.40
2006,07,22,13,20,33.60
2006,07,22,13,21,33.70
2006,07,22,13,22,33.90
2006,07,22,13,23,34.00
2006,07,22,13,24,33.90
2006,07,22,13,25,33.80
2006,07,22,13,26,33.90
2006,07,22,13,27,34.00
2006,07,22,13,28,34.10
2006,07,22,13,29,33.90
2006,07,22,13,30,33.20
2006,07,22,13,31,32.50
2006,07,22,13,32,31.90
2006,07,22,13,33,31.40
2006,07,22,13,34,30.90
2006,07,22,13,35,30.50
2006,07,22,13,36,30.10
2006,07,22,13,37,29.70
2006,07,22,13,38,29.50
2006,07,22,13,39,29.20
2006,07,22,13,40,28.90
2006,07,22,13,41,28.70
2006,07,22,13,42,28.60
2006,07,22,13,43,28.60
2006,07,22,13,44,28.40
2006,07,22,13,45,28.20
2006,07,22,13,46,28.00
2006,07,22,13,47,27.90
2006,07,22,13,48,27.70
2006,07,22,13,49,27.60
2006,07,22,13,50,27.50
2006,07,22,13,51,27.50
2006,07,22,13,52,27.60
2006,07,22,13,53,27.60
2006,07,22,13,54,27.70
2006,07,22,13,55,27.80
2006,07,22,13,56,27.80
2006,07,22,13,57,27.80
2006,07,22,13,58,27.80
2006,07,22,13,59,27.80
2006,07,22,14,00,27.70
2006,07,22,14,01,27.60
2006,07,22,14,02,27.60
2006,07,22,14,03,27.50
2006,07,22,14,04,27.30
2006,07,22,14,05,27.30
2006,07,22,14,06,27.30
2006,07,22,14,07,27.30
2006,07,22,14,08,27.30
2006,07,22,14,09,27.20
2006,07,22,14,10,27.10
2006,07,22,14,11,27.00
2006,07,22,14,12,27.10
2006,07,22,14,13,27.10
2006,07,22,14,14,27.20
2006,07,22,14,15,27.30
2006,07,22,14,16,27.50
2006,07,22,14,17,27.70
2006,07,22,14,18,27.80
2006,07,22,14,19,27.70
2006,07,22,14,20,27.70
2006,07,22,14,21,27.70
2006,07,22,14,22,27.60
2006,07,22,14,23,27.60
2006,07,22,14,24,27.50
2006,07,22,14,25,27.30
2006,07,22,14,26,27.30
2006,07,22,14,27,27.40
2006,07,22,14,28,27.50
2006,07,22,14,29,27.60
2006,07,22,14,30,27.40
2006,07,22,14,31,27.40
2006,07,22,14,32,27.40
2006,07,22,14,33,27.40
2006,07,22,14,34,27.30
2006,07,22,14,35,27.30
2006,07,22,14,36,27.40
2006,07,22,14,37,27.40
2006,07,22,14,38,27.50
2006,07,22,14,39,27.70
2006,07,22,14,40,27.70
2006,07,22,14,41,27.70
2006,07,22,14,42,27.60
2006,07,22,14,43,27.60
2006,07,22,14,44,27.60
2006,07,22,14,45,27.60
2006,07,22,14,46,27.60
2006,07,22,14,47,27.70
2006,07,22,14,48,27.70
2006,07,22,14,49,27.70
2006,07,22,14,50,27.70
2006,07,22,14,51,27.70
2006,07,22,14,52,27.70
2006,07,22,14,53,27.90
2006,07,22,14,54,28.00
2006,07,22,14,55,28.10
2006,07,22,14,56,28.20
2006,07,22,14,57,28.40
2006,07,22,14,58,28.50
2006,07,22,14,59,28.70
2006,07,22,15,00,28.80
2006,07,22,15,01,28.80
2006,07,22,15,02,28.80
2006,07,22,15,03,28.80
2006,07,22,15,04,28.70
2006,07,22,15,05,28.70
2006,07,22,15,06,28.70
2006,07,22,15,07,28.70
2006,07,22,15,08,28.70
2006,07,22,15,09,28.70
2006,07,22,15,10,28.70
2006,07,22,15,11,28.80
2006,07,22,15,12,28.80
2006,07,22,15,13,28.90
2006,07,22,15,14,28.90
2006,07,22,15,15,29.00
2006,07,22,15,16,29.20
2006,07,22,15,17,29.20
2006,07,22,15,18,29.20
2006,07,22,15,19,29.10
2006,07,22,15,20,29.10
2006,07,22,15,21,29.00
2006,07,22,15,22,28.90
2006,07,22,15,23,29.00
2006,07,22,15,24,29.10
2006,07,22,15,25,29.10
2006,07,22,15,26,28.90
2006,07,22,15,27,28.90
2006,07,22,15,28,28.90
2006,07,22,15,29,29.10
2006,07,22,15,30,29.30
2006,07,22,15,31,29.50
2006,07,22,15,32,29.70
2006,07,22,15,33,29.90
2006,07,22,15,34,30.10
2006,07,22,15,35,30.10
2006,07,22,15,36,30.20
2006,07,22,15,37,30.20
2006,07,22,15,38,30.30
2006,07,22,15,39,30.30
2006,07,22,15,40,30.30
2006,07,22,15,41,30.30
2006,07,22,15,42,30.30
2006,07,22,15,43,30.30
2006,07,22,15,44,30.40
2006,07,22,15,45,30.40
2006,07,22,15,46,30.40
2006,07,22,15,47,30.60
2006,07,22,15,48,30.60
2006,07,22,15,49,30.60
2006,07,22,15,50,30.60
2006,07,22,15,51,30.60
2006,07,22,15,52,30.60
2006,07,22,15,53,30.60
2006,07,22,15,54,30.50
2006,07,22,15,55,30.30
2006,07,22,15,56,30.10
2006,07,22,15,57,30.10
2006,07,22,15,58,30.10
2006,07,22,15,59,30.20
2006,07,22,16,00,30.20
2006,07,22,16,01,30.20
2006,07,22,16,02,30.20
2006,07,22,16,03,30.20
2006,07,22,16,04,30.10
2006,07,22,16,05,30.00
2006,07,22,16,06,30.10
2006,07,22,16,07,30.10
2006,07,22,16,08,30.20
2006,07,22,16,09,30.30
2006,07,22,16,10,30.40
2006,07,22,16,11,30.50
2006,07,22,16,12,30.80
2006,07,22,16,13,30.80
2006,07,22,16,14,30.80
2006,07,22,16,15,30.80
2006,07,22,16,16,30.80
2006,07,22,16,17,30.70
2006,07,22,16,18,30.70
2006,07,22,16,19,30.80
2006,07,22,16,20,30.80
2006,07,22,16,21,30.90
2006,07,22,16,22,30.60
2006,07,22,16,23,30.30
2006,07,22,16,24,30.20
2006,07,22,16,25,30.10
2006,07,22,16,26,30.10
2006,07,22,16,27,30.10
2006,07,22,16,28,30.00
2006,07,22,16,29,29.80
2006,07,22,16,30,29.70
2006,07,22,16,31,29.70
2006,07,22,16,32,29.70
2006,07,22,16,33,29.70
2006,07,22,16,34,29.70
2006,07,22,16,35,29.90
2006,07,22,16,36,29.90
2006,07,22,16,37,29.90
2006,07,22,16,38,29.90
2006,07,22,16,39,29.90
2006,07,22,16,40,29.90
2006,07,22,16,41,29.90
2006,07,22,16,42,29.90
2006,07,22,16,43,29.80
2006,07,22,16,44,29.60
2006,07,22,16,45,29.40
2006,07,22,16,46,29.40
2006,07,22,16,47,29.50
2006,07,22,16,48,29.50
2006,07,22,16,49,29.60
2006,07,22,16,50,29.60
2006,07,22,16,51,29.60
2006,07,22,16,52,29.60
2006,07,22,16,53,29.40
2006,07,22,16,54,29.30
2006,07,22,16,55,29.20
2006,07,22,16,56,29.10
2006,07,22,16,57,29.20
2006,07,22,16,58,29.10
2006,07,22,16,59,29.10
2006,07,22,17,00,29.10
2006,07,22,17,01,29.10
2006,07,22,17,02,29.20
2006,07,22,17,03,29.20
2006,07,22,17,04,29.30
2006,07,22,17,05,29.30
2006,07,22,17,06,29.30
2006,07,22,17,07,29.20
2006,07,22,17,08,29.20
2006,07,22,17,09,29.10
2006,07,22,17,10,29.10
2006,07,22,17,11,29.10
2006,07,22,17,12,29.00
2006,07,22,17,13,28.90
2006,07,22,17,14,28.90
2006,07,22,17,15,29.10
2006,07,22,17,16,29.10
2006,07,22,17,17,29.20
2006,07,22,17,18,29.10
2006,07,22,17,19,29.10